STARLINK U (59940 NORAD) Tracking and Keplerian Element Data

This shows tracking and keplerian element data for the satellite.

Feedback or suggestion? Click here.




ElementValue
Catalog59940
NameSTARLINK U
Epoch Orbit233
Epoch Day160.16667824
Epoch Year2024
RAAN22.4009
Inclination43.002
Eccentricity0.0001988
Argument of Perigee279.7169
Mean Anonmoly174.885
Mean Motion15.93378653
Decay Rate-0.01055313
L11 59940U 24106U 24160.16667824 -.01055313 33795-3 -28519-2 0 9990
L22 59940 43.0020 22.4009 0001988 279.7169 174.8850 15.93378653 2333



Live tracking and technical data element details for STARLINK U (NORAD 59940). STARLINK U can be tracked NOW for your location showing map with azimuth and elevation plus other details from your city location.







IsCatalogInMostPopularTable: catalog: 59940, numindb: 9
Update: records affected: 1



GetName: 59940 STARLINK U

Hit Count: updated at: Tue, 16 Jul 2024 04:02:30 GMT